Time,TemperatureF,DewpointF,PressureIn,WindDirection,WindDirectionDegrees,WindSpeedMPH,WindSpeedGustMPH,Humidity,HourlyPrecipIn,Conditions,Clouds,dailyrainin,SoftwareType,DateUTC
2013-04-21 00:03:00,53.0,42.3,30.19,NNE,13,0.0,0.0,67,0.00,,CLR,0.00,VWS V13.01,2013-04-21 05:03:00,
2013-04-21 00:08:00,52.9,42.3,30.19,NNE,13,0.0,0.0,67,0.00,,CLR,0.00,VWS V13.01,2013-04-21 05:08:00,
2013-04-21 00:13:00,52.9,42.6,30.18,NNE,13,0.0,1.0,68,0.00,,CLR,0.00,VWS V13.01,2013-04-21 05:13:00,
2013-04-21 00:22:00,52.7,42.8,30.18,NNE,13,0.0,0.0,69,0.00,,CLR,0.00,VWS V13.01,2013-04-21 05:22:00,
2013-04-21 00:27:00,52.6,42.7,30.18,NNE,13,0.0,0.0,69,0.00,,CLR,0.00,VWS V13.01,2013-04-21 05:27:00,
2013-04-21 00:32:00,52.4,42.9,30.18,NNE,13,0.0,0.0,70,0.00,,CLR,0.00,VWS V13.01,2013-04-21 05:32:00,
2013-04-21 00:37:00,52.3,42.8,30.17,NNE,13,0.0,0.0,70,0.00,,CLR,0.00,VWS V13.01,2013-04-21 05:37:00,
2013-04-21 00:42:00,52.2,42.7,30.17,NNE,13,0.0,1.0,70,0.00,,CLR,0.00,VWS V13.01,2013-04-21 05:42:00,
2013-04-21 00:48:00,52.1,43.0,30.17,NNE,13,0.0,0.0,71,0.00,,CLR,0.00,VWS V13.01,2013-04-21 05:48:00,
2013-04-21 00:53:00,52.0,42.9,30.17,NNE,13,0.0,0.0,71,0.00,,CLR,0.00,VWS V13.01,2013-04-21 05:53:00,
2013-04-21 00:58:00,51.8,43.1,30.17,NNE,13,0.0,0.0,72,0.00,,CLR,0.00,VWS V13.01,2013-04-21 05:58:00,
2013-04-21 01:03:00,51.7,43.0,30.17,NNE,13,0.0,0.0,72,0.00,,CLR,0.00,VWS V13.01,2013-04-21 06:03:00,
2013-04-21 01:08:00,51.5,42.8,30.17,NNE,13,0.0,0.0,72,0.00,,CLR,0.00,VWS V13.01,2013-04-21 06:08:00,
2013-04-21 01:13:00,51.5,42.8,30.17,NNE,13,0.0,0.0,72,0.00,,CLR,0.00,VWS V13.01,2013-04-21 06:13:00,
2013-04-21 01:18:00,51.4,42.7,30.17,NNE,13,0.0,0.0,72,0.00,,CLR,0.00,VWS V13.01,2013-04-21 06:18:00,
2013-04-21 01:23:00,51.3,43.0,30.17,NNE,13,0.0,0.0,73,0.00,,CLR,0.00,VWS V13.01,2013-04-21 06:23:00,
2013-04-21 01:29:00,51.2,42.9,30.17,NNE,13,0.0,0.0,73,0.00,,CLR,0.00,VWS V13.01,2013-04-21 06:29:00,
2013-04-21 01:34:00,51.0,43.0,30.17,NNE,13,0.0,0.0,74,0.00,,CLR,0.00,VWS V13.01,2013-04-21 06:34:00,
2013-04-21 01:39:00,50.8,42.8,30.16,NNE,13,0.0,0.0,74,0.00,,CLR,0.00,VWS V13.01,2013-04-21 06:39:00,
2013-04-21 01:44:00,50.6,43.0,30.16,NNE,13,0.0,0.0,75,0.00,,CLR,0.00,VWS V13.01,2013-04-21 06:44:00,
2013-04-21 01:49:00,50.4,43.1,30.16,NNE,13,0.0,0.0,76,0.00,,CLR,0.00,VWS V13.01,2013-04-21 06:49:00,
2013-04-21 01:54:00,50.1,42.8,30.16,NNE,13,0.0,0.0,76,0.00,,CLR,0.00,VWS V13.01,2013-04-21 06:54:00,
2013-04-21 01:59:00,50.0,42.7,30.16,NNE,13,0.0,0.0,76,0.00,,CLR,0.00,VWS V13.01,2013-04-21 06:59:00,
2013-04-21 02:06:00,49.9,42.7,30.15,NNE,13,0.0,0.0,76,0.00,,CLR,0.00,VWS V13.01,2013-04-21 07:06:00,
2013-04-21 02:11:00,49.9,43.0,30.15,NNE,13,0.0,0.0,77,0.00,,CLR,0.00,VWS V13.01,2013-04-21 07:11:00,
2013-04-21 02:16:00,49.8,42.9,30.15,NNE,13,0.0,0.0,77,0.00,,CLR,0.00,VWS V13.01,2013-04-21 07:16:00,
2013-04-21 02:21:00,49.7,42.8,30.15,NNE,13,0.0,0.0,77,0.00,,CLR,0.00,VWS V13.01,2013-04-21 07:21:00,
2013-04-21 02:26:00,49.6,42.7,30.15,NNE,13,0.0,0.0,77,0.00,,CLR,0.00,VWS V13.01,2013-04-21 07:26:00,
2013-04-21 02:31:00,49.6,42.7,30.15,NNE,13,0.0,0.0,77,0.00,,CLR,0.00,VWS V13.01,2013-04-21 07:31:00,
2013-04-21 02:36:00,49.6,42.7,30.15,NNE,13,0.0,0.0,77,0.00,,CLR,0.00,VWS V13.01,2013-04-21 07:36:00,
2013-04-21 02:42:00,49.5,42.6,30.15,NNE,13,0.0,0.0,77,0.00,,CLR,0.00,VWS V13.01,2013-04-21 07:42:00,
2013-04-21 02:47:00,49.5,42.6,30.15,NNE,13,0.0,0.0,77,0.00,,CLR,0.00,VWS V13.01,2013-04-21 07:47:00,
2013-04-21 02:52:00,49.5,42.9,30.14,NNE,13,0.0,1.0,78,0.00,,CLR,0.00,VWS V13.01,2013-04-21 07:52:00,
2013-04-21 02:57:00,49.4,42.8,30.15,NNE,13,0.0,1.0,78,0.00,,CLR,0.00,VWS V13.01,2013-04-21 07:57:00,
2013-04-21 03:02:00,49.3,42.7,30.15,NNE,13,0.0,0.0,78,0.00,,CLR,0.00,VWS V13.01,2013-04-21 08:02:00,
2013-04-21 03:07:00,49.1,42.5,30.15,NNE,13,0.0,0.0,78,0.00,,CLR,0.00,VWS V13.01,2013-04-21 08:07:00,
2013-04-21 03:12:00,48.9,42.7,30.15,NNE,13,0.0,0.0,79,0.00,,CLR,0.00,VWS V13.01,2013-04-21 08:12:00,
2013-04-21 03:17:00,48.7,42.8,30.15,NNE,13,0.0,0.0,80,0.00,,CLR,0.00,VWS V13.01,2013-04-21 08:17:00,
2013-04-21 03:22:00,48.5,42.6,30.15,NNE,13,0.0,0.0,80,0.00,,CLR,0.00,VWS V13.01,2013-04-21 08:22:00,
2013-04-21 03:28:00,48.3,42.4,30.15,NNE,13,0.0,0.0,80,0.00,,CLR,0.00,VWS V13.01,2013-04-21 08:28:00,
2013-04-21 03:33:00,48.2,42.7,30.15,NNE,13,0.0,0.0,81,0.00,,CLR,0.00,VWS V13.01,2013-04-21 08:33:00,
2013-04-21 03:38:00,48.0,42.5,30.15,NNE,13,0.0,0.0,81,0.00,,CLR,0.00,VWS V13.01,2013-04-21 08:38:00,
2013-04-21 03:43:00,48.0,42.5,30.15,NNE,13,0.0,0.0,81,0.00,,CLR,0.00,VWS V13.01,2013-04-21 08:43:00,
2013-04-21 03:48:00,47.9,42.4,30.15,NNE,13,0.0,0.0,81,0.00,,CLR,0.00,VWS V13.01,2013-04-21 08:48:00,
2013-04-21 03:53:00,48.0,42.5,30.15,NNE,13,0.0,0.0,81,0.00,,CLR,0.00,VWS V13.01,2013-04-21 08:53:00,
2013-04-21 03:58:00,48.0,42.5,30.15,NNE,13,0.0,0.0,81,0.00,,CLR,0.00,VWS V13.01,2013-04-21 08:58:00,
2013-04-21 04:03:00,47.9,42.4,30.15,NNE,13,0.0,0.0,81,0.00,,CLR,0.00,VWS V13.01,2013-04-21 09:03:00,
2013-04-21 04:08:00,47.9,42.4,30.15,NNE,13,0.0,0.0,81,0.00,,CLR,0.00,VWS V13.01,2013-04-21 09:08:00,
2013-04-21 04:14:00,47.9,42.4,30.15,NNE,13,0.0,0.0,81,0.00,,CLR,0.00,VWS V13.01,2013-04-21 09:14:00,
2013-04-21 04:19:00,47.8,42.6,30.15,NNE,13,0.0,0.0,82,0.00,,CLR,0.00,VWS V13.01,2013-04-21 09:19:00,
2013-04-21 04:24:00,47.8,42.6,30.15,NNE,13,0.0,0.0,82,0.00,,CLR,0.00,VWS V13.01,2013-04-21 09:24:00,
2013-04-21 04:29:00,47.7,42.5,30.15,NNE,13,0.0,0.0,82,0.00,,CLR,0.00,VWS V13.01,2013-04-21 09:29:00,
2013-04-21 04:34:00,47.6,42.4,30.15,NNE,13,0.0,0.0,82,0.00,,CLR,0.00,VWS V13.01,2013-04-21 09:34:00,
2013-04-21 04:39:00,47.5,42.3,30.15,NNE,13,0.0,0.0,82,0.00,,CLR,0.00,VWS V13.01,2013-04-21 09:39:00,
2013-04-21 04:44:00,47.4,42.5,30.15,NNE,13,0.0,0.0,83,0.00,,CLR,0.00,VWS V13.01,2013-04-21 09:44:00,
2013-04-21 04:49:00,47.3,42.4,30.15,NNE,13,0.0,0.0,83,0.00,,CLR,0.00,VWS V13.01,2013-04-21 09:49:00,
2013-04-21 04:55:00,47.2,42.3,30.15,NNE,13,0.0,0.0,83,0.00,,CLR,0.00,VWS V13.01,2013-04-21 09:55:00,
2013-04-21 05:00:00,47.1,42.2,30.15,NNE,13,0.0,0.0,83,0.00,,CLR,0.00,VWS V13.01,2013-04-21 10:00:00,
2013-04-21 05:05:00,47.0,42.1,30.15,NNE,13,0.0,0.0,83,0.00,,CLR,0.00,VWS V13.01,2013-04-21 10:05:00,
2013-04-21 05:10:00,47.0,42.1,30.15,NNE,13,0.0,0.0,83,0.00,,CLR,0.00,VWS V13.01,2013-04-21 10:10:00,
2013-04-21 05:15:00,46.9,42.0,30.15,NNE,13,0.0,0.0,83,0.00,,CLR,0.00,VWS V13.01,2013-04-21 10:15:00,
2013-04-21 05:20:00,46.7,41.8,30.15,NNE,13,0.0,0.0,83,0.00,,CLR,0.00,VWS V13.01,2013-04-21 10:20:00,
2013-04-21 05:25:00,46.5,41.9,30.15,NNE,13,0.0,0.0,84,0.00,,CLR,0.00,VWS V13.01,2013-04-21 10:25:00,
2013-04-21 05:30:00,46.3,41.7,30.15,NNE,13,0.0,0.0,84,0.00,,CLR,0.00,VWS V13.01,2013-04-21 10:30:00,
2013-04-21 05:35:00,46.1,41.8,30.15,NNE,13,0.0,0.0,85,0.00,,CLR,0.00,VWS V13.01,2013-04-21 10:35:00,
2013-04-21 05:40:00,46.0,41.8,30.15,NNE,13,0.0,0.0,85,0.00,,CLR,0.00,VWS V13.01,2013-04-21 10:40:00,
2013-04-21 05:45:00,45.9,41.7,30.15,NNE,13,0.0,0.0,85,0.00,,CLR,0.00,VWS V13.01,2013-04-21 10:45:00,
2013-04-21 05:50:00,45.9,41.7,30.16,NNE,13,0.0,0.0,85,0.00,,CLR,0.00,VWS V13.01,2013-04-21 10:50:00,
2013-04-21 05:55:00,45.7,41.5,30.16,NNE,13,0.0,0.0,85,0.00,,CLR,0.00,VWS V13.01,2013-04-21 10:55:00,
2013-04-21 06:01:00,45.6,41.7,30.16,NNE,13,0.0,0.0,86,0.00,,CLR,0.00,VWS V13.01,2013-04-21 11:01:00,
2013-04-21 06:06:00,45.6,41.7,30.16,NNE,13,0.0,0.0,86,0.00,,CLR,0.00,VWS V13.01,2013-04-21 11:06:00,
2013-04-21 06:11:00,45.5,41.6,30.16,NNE,13,0.0,0.0,86,0.00,,CLR,0.00,VWS V13.01,2013-04-21 11:11:00,
2013-04-21 06:16:00,45.4,41.5,30.17,NNE,13,0.0,0.0,86,0.00,,CLR,0.00,VWS V13.01,2013-04-21 11:16:00,
2013-04-21 06:21:00,45.4,41.5,30.17,NNE,13,0.0,0.0,86,0.00,,CLR,0.00,VWS V13.01,2013-04-21 11:21:00,
2013-04-21 06:26:00,45.3,41.4,30.16,NNE,13,0.0,1.0,86,0.00,,CLR,0.00,VWS V13.01,2013-04-21 11:26:00,
2013-04-21 06:31:00,45.2,41.3,30.17,NNE,13,0.0,0.0,86,0.00,,CLR,0.00,VWS V13.01,2013-04-21 11:31:00,
2013-04-21 06:36:00,45.2,41.3,30.16,NNE,13,0.0,0.0,86,0.00,,CLR,0.00,VWS V13.01,2013-04-21 11:36:00,
2013-04-21 06:41:00,45.2,41.3,30.17,NNE,13,0.0,0.0,86,0.00,,CLR,0.00,VWS V13.01,2013-04-21 11:41:00,
2013-04-21 06:46:00,45.2,41.3,30.16,NNE,13,0.0,0.0,86,0.00,,CLR,0.00,VWS V13.01,2013-04-21 11:46:00,
2013-04-21 06:52:00,45.4,41.5,30.16,NNE,13,0.0,1.0,86,0.00,,CLR,0.00,VWS V13.01,2013-04-21 11:52:00,
2013-04-21 06:57:00,45.7,41.8,30.16,NNE,13,0.0,3.0,86,0.00,,CLR,0.00,VWS V13.01,2013-04-21 11:57:00,
2013-04-21 07:02:00,46.0,41.8,30.16,NNE,13,0.0,1.0,85,0.00,,CLR,0.00,VWS V13.01,2013-04-21 12:02:00,
2013-04-21 07:07:00,46.4,42.1,30.16,NNE,13,0.0,1.0,85,0.00,,CLR,0.00,VWS V13.01,2013-04-21 12:07:00,
2013-04-21 07:12:00,46.8,42.2,30.16,NNE,13,0.0,2.0,84,0.00,,CLR,0.00,VWS V13.01,2013-04-21 12:12:00,
2013-04-21 07:17:00,47.1,42.2,30.17,NNE,13,2.0,3.0,83,0.00,,CLR,0.00,VWS V13.01,2013-04-21 12:17:00,
2013-04-21 07:22:00,47.7,42.5,30.17,North,11,0.0,4.0,82,0.00,,CLR,0.00,VWS V13.01,2013-04-21 12:22:00,
2013-04-21 07:27:00,48.2,43.0,30.17,NNE,12,0.0,4.0,82,0.00,,CLR,0.00,VWS V13.01,2013-04-21 12:27:00,
2013-04-21 07:32:00,48.8,43.2,30.17,NNE,12,0.0,0.0,81,0.00,,CLR,0.00,VWS V13.01,2013-04-21 12:32:00,
2013-04-21 07:37:00,49.4,43.5,30.17,NNE,12,0.0,1.0,80,0.00,,CLR,0.00,VWS V13.01,2013-04-21 12:37:00,
2013-04-21 07:42:00,50.0,43.8,30.17,NNE,12,0.0,3.0,79,0.00,,CLR,0.00,VWS V13.01,2013-04-21 12:42:00,
2013-04-21 07:47:00,50.6,44.0,30.17,North,11,0.0,2.0,78,0.00,,CLR,0.00,VWS V13.01,2013-04-21 12:47:00,
2013-04-21 07:53:00,51.1,44.2,30.17,NNW,334,0.0,5.0,77,0.00,,CLR,0.00,VWS V13.01,2013-04-21 12:53:00,
2013-04-21 07:58:00,51.5,44.5,30.18,NNE,24,0.0,5.0,77,0.00,,CLR,0.00,VWS V13.01,2013-04-21 12:58:00,
2013-04-21 08:03:00,52.0,44.7,30.17,NNE,30,0.0,1.0,76,0.00,,FEW250,0.00,VWS V13.01,2013-04-21 13:03:00,
2013-04-21 08:08:00,52.6,44.9,30.17,NNW,334,0.0,4.0,75,0.00,,FEW250,0.00,VWS V13.01,2013-04-21 13:08:00,
2013-04-21 08:33:00,55.9,45.5,30.17,NNW,337,0.0,3.0,68,0.00,,FEW250,0.00,VWS V13.01,2013-04-21 13:33:00,
2013-04-21 08:38:00,56.4,46.0,30.17,North,360,3.0,6.0,68,0.00,,FEW250,0.00,VWS V13.01,2013-04-21 13:38:00,
2013-04-21 08:43:00,56.8,46.0,30.18,NNW,345,0.0,6.0,67,0.00,,FEW250,0.00,VWS V13.01,2013-04-21 13:43:00,
2013-04-21 08:48:00,57.5,47.0,30.18,NNW,345,0.0,4.0,68,0.00,,FEW250,0.00,VWS V13.01,2013-04-21 13:48:00,
2013-04-21 08:54:00,58.5,47.2,30.18,NNE,26,0.0,4.0,66,0.00,,FEW250,0.00,VWS V13.01,2013-04-21 13:54:00,
2013-04-21 08:59:00,59.4,46.8,30.18,NE,56,0.0,6.0,63,0.00,,FEW250,0.00,VWS V13.01,2013-04-21 13:59:00,
2013-04-21 09:04:00,60.3,47.2,30.18,ESE,111,0.0,2.0,62,0.00,,FEW250,0.00,VWS V13.01,2013-04-21 14:04:00,
2013-04-21 09:09:00,61.2,46.8,30.18,SSE,149,0.0,4.0,59,0.00,,FEW250,0.00,VWS V13.01,2013-04-21 14:09:00,
2013-04-21 09:14:00,61.9,47.9,30.18,ESE,119,0.0,4.0,60,0.00,,FEW250,0.00,VWS V13.01,2013-04-21 14:14:00,
2013-04-21 09:15:00,54.0,45.2,30.18,NNW,341,0.0,6.0,72,0.00,,SCT200,0.00,VWS V13.01,2013-04-21 14:15:00,
2013-04-21 09:19:00,62.6,47.2,30.18,NNE,25,0.0,5.0,57,0.00,,FEW250,0.00,VWS V13.01,2013-04-21 14:19:00,
2013-04-21 09:24:00,63.1,46.7,30.19,NE,37,0.0,5.0,55,0.00,,FEW250,0.00,VWS V13.01,2013-04-21 14:24:00,
2013-04-21 09:29:00,63.6,47.2,30.18,NE,51,0.0,5.0,55,0.00,,FEW250,0.00,VWS V13.01,2013-04-21 14:29:00,
2013-04-21 09:34:00,64.1,48.1,30.18,NE,38,0.0,3.0,56,0.00,,FEW250,0.00,VWS V13.01,2013-04-21 14:34:00,
2013-04-21 09:40:00,64.7,47.7,30.18,East,79,0.0,5.0,54,0.00,,FEW250,0.00,VWS V13.01,2013-04-21 14:40:00,
2013-04-21 09:45:00,65.0,46.5,30.18,ESE,114,0.0,5.0,51,0.00,,FEW250,0.00,VWS V13.01,2013-04-21 14:45:00,
2013-04-21 09:50:00,65.5,45.8,30.18,ENE,61,0.0,4.0,49,0.00,,FEW250,0.00,VWS V13.01,2013-04-21 14:50:00,
2013-04-21 09:55:00,66.1,46.9,30.18,North,11,2.0,4.0,50,0.00,,FEW250,0.00,VWS V13.01,2013-04-21 14:55:00,
2013-04-21 10:00:00,66.9,47.1,30.19,NNE,16,0.0,5.0,49,0.00,,FEW250,0.00,VWS V13.01,2013-04-21 15:00:00,
2013-04-21 10:05:00,67.5,47.1,30.19,ENE,62,1.0,4.0,48,0.00,,FEW250,0.00,VWS V13.01,2013-04-21 15:05:00,
2013-04-21 10:10:00,67.8,46.3,30.19,NE,42,0.0,6.0,46,0.00,,FEW250,0.00,VWS V13.01,2013-04-21 15:10:00,
2013-04-21 10:15:00,68.2,46.7,30.20,NE,51,0.0,6.0,46,0.00,,FEW250,0.00,VWS V13.01,2013-04-21 15:15:00,
2013-04-21 10:20:00,68.8,46.6,30.20,NNE,24,1.0,4.0,45,0.00,,FEW250,0.00,VWS V13.01,2013-04-21 15:20:00,
2013-04-21 10:25:00,69.2,47.0,30.20,North,9,0.0,4.0,45,0.00,,FEW250,0.00,VWS V13.01,2013-04-21 15:25:00,
2013-04-21 10:30:00,69.2,45.8,30.20,SE,126,0.0,7.0,43,0.00,,FEW250,0.00,VWS V13.01,2013-04-21 15:30:00,
2013-04-21 10:36:00,69.2,46.4,30.19,NE,46,0.0,5.0,44,0.00,,FEW250,0.00,VWS V13.01,2013-04-21 15:36:00,
2013-04-21 10:41:00,69.5,46.7,30.20,SE,144,0.0,5.0,44,0.00,,FEW250,0.00,VWS V13.01,2013-04-21 15:41:00,
2013-04-21 10:45:00,65.1,47.1,30.19,ESE,109,0.0,5.0,52,0.00,,SCT200,0.00,VWS V13.01,2013-04-21 15:45:00,
2013-04-21 10:51:00,69.7,45.6,30.20,ENE,63,3.0,5.0,42,0.00,,FEW250,0.00,VWS V13.01,2013-04-21 15:51:00,
2013-04-21 10:56:00,69.8,46.3,30.20,NNW,340,0.0,5.0,43,0.00,,FEW250,0.00,VWS V13.01,2013-04-21 15:56:00,
2013-04-21 11:00:00,67.1,46.8,30.19,NNE,18,0.0,5.0,48,0.00,,SCT200,0.00,VWS V13.01,2013-04-21 16:00:00,
2013-04-21 11:01:00,69.8,46.9,30.20,North,355,2.0,7.0,44,0.00,,FEW250,0.00,VWS V13.01,2013-04-21 16:01:00,
2013-04-21 11:06:00,70.0,47.7,30.20,North,5,4.0,6.0,45,0.00,,FEW250,0.00,VWS V13.01,2013-04-21 16:06:00,
2013-04-21 11:11:00,70.2,47.3,30.20,NE,47,0.0,6.0,44,0.00,,FEW250,0.00,VWS V13.01,2013-04-21 16:11:00,
2013-04-21 11:15:00,68.3,47.3,30.20,NE,51,0.0,6.0,47,0.00,,SCT200,0.00,VWS V13.01,2013-04-21 16:15:00,
2013-04-21 11:16:00,70.3,47.4,30.20,ENE,57,0.0,4.0,44,0.00,,FEW250,0.00,VWS V13.01,2013-04-21 16:16:00,
2013-04-21 11:22:00,70.3,47.4,30.19,SE,144,3.0,4.0,44,0.00,,FEW250,0.00,VWS V13.01,2013-04-21 16:22:00,
2013-04-21 11:27:00,70.0,47.1,30.19,SSE,148,0.0,6.0,44,0.00,,FEW250,0.00,VWS V13.01,2013-04-21 16:27:00,
2013-04-21 11:30:00,69.2,45.8,30.20,ESE,121,0.0,7.0,43,0.00,,SCT200,0.00,VWS V13.01,2013-04-21 16:30:00,
2013-04-21 11:32:00,70.0,48.9,30.19,East,82,0.0,3.0,47,0.00,,FEW250,0.00,VWS V13.01,2013-04-21 16:32:00,
2013-04-21 11:37:00,70.3,47.4,30.19,SE,139,2.0,5.0,44,0.00,,FEW250,0.00,VWS V13.01,2013-04-21 16:37:00,
2013-04-21 11:42:00,70.6,47.7,30.19,ENE,58,0.0,10.0,44,0.00,,FEW250,0.00,VWS V13.01,2013-04-21 16:42:00,
2013-04-21 11:45:00,69.8,46.3,30.20,NE,48,0.0,6.0,43,0.00,,SCT200,0.00,VWS V13.01,2013-04-21 16:45:00,
2013-04-21 11:47:00,70.7,48.3,30.19,North,355,0.0,1.0,45,0.00,,FEW250,0.00,VWS V13.01,2013-04-21 16:47:00,
2013-04-21 11:52:00,70.7,48.9,30.19,NNE,17,0.0,7.0,46,0.00,,FEW250,0.00,VWS V13.01,2013-04-21 16:52:00,
2013-04-21 11:57:00,70.8,49.0,30.19,North,360,0.0,7.0,46,0.00,,FEW250,0.00,VWS V13.01,2013-04-21 16:57:00,
2013-04-21 12:00:00,69.8,46.9,30.20,North,355,2.0,7.0,44,0.00,,SCT200,0.00,VWS V13.01,2013-04-21 17:00:00,
2013-04-21 12:02:00,71.1,49.9,30.19,North,360,0.0,0.0,47,0.00,,FEW250,0.00,VWS V13.01,2013-04-21 17:02:00,
2013-04-21 12:08:00,71.2,47.6,30.18,ESE,103,0.0,6.0,43,0.00,,FEW250,0.00,VWS V13.01,2013-04-21 17:08:00,
2013-04-21 12:13:00,71.3,47.0,30.18,ESE,103,0.0,6.0,42,0.00,,FEW250,0.00,VWS V13.01,2013-04-21 17:13:00,
2013-04-21 12:15:00,70.2,47.3,30.20,ENE,60,4.0,6.0,44,0.00,,SCT200,0.00,VWS V13.01,2013-04-21 17:15:00,
2013-04-21 12:18:00,71.2,48.2,30.18,North,355,2.0,10.0,44,0.00,,FEW250,0.00,VWS V13.01,2013-04-21 17:18:00,
2013-04-21 12:23:00,71.1,46.2,30.18,SE,135,1.0,10.0,41,0.00,,FEW250,0.00,VWS V13.01,2013-04-21 17:23:00,
2013-04-21 12:28:00,70.8,49.0,30.18,NE,45,0.0,10.0,46,0.00,,FEW250,0.00,VWS V13.01,2013-04-21 17:28:00,
2013-04-21 12:30:00,70.0,48.3,30.19,SSE,148,0.0,6.0,46,0.00,,SCT200,0.00,VWS V13.01,2013-04-21 17:30:00,
2013-04-21 12:33:00,71.1,48.7,30.18,ENE,58,2.0,3.0,45,0.00,,FEW250,0.00,VWS V13.01,2013-04-21 17:33:00,
2013-04-21 12:38:00,71.2,48.2,30.17,SSE,153,0.0,9.0,44,0.00,,FEW250,0.00,VWS V13.01,2013-04-21 17:38:00,
2013-04-21 12:43:00,71.3,49.5,30.17,ENE,68,0.0,9.0,46,0.00,,FEW250,0.00,VWS V13.01,2013-04-21 17:43:00,
2013-04-21 12:45:00,70.7,47.7,30.19,North,355,0.0,10.0,44,0.00,,SCT200,0.00,VWS V13.01,2013-04-21 17:45:00,
2013-04-21 12:48:00,71.5,50.8,30.17,East,98,0.0,1.0,48,0.00,,FEW250,0.00,VWS V13.01,2013-04-21 17:48:00,
2013-04-21 12:54:00,71.8,46.2,30.17,East,83,0.0,4.0,40,0.00,,FEW250,0.00,VWS V13.01,2013-04-21 17:54:00,
2013-04-21 12:59:00,71.6,47.3,30.16,East,84,0.0,4.0,42,0.00,,FEW250,0.00,VWS V13.01,2013-04-21 17:59:00,
2013-04-21 13:00:00,71.0,49.2,30.19,North,360,1.0,7.0,46,0.00,,SCT200,0.00,VWS V13.01,2013-04-21 18:00:00,
2013-04-21 13:04:00,71.3,47.0,30.16,SE,137,0.0,1.0,42,0.00,,FEW250,0.00,VWS V13.01,2013-04-21 18:04:00,
2013-04-21 13:09:00,71.3,50.0,30.16,SE,136,2.0,3.0,47,0.00,,FEW250,0.00,VWS V13.01,2013-04-21 18:09:00,
2013-04-21 13:14:00,71.3,49.5,30.15,NNE,18,1.0,5.0,46,0.00,,FEW250,0.00,VWS V13.01,2013-04-21 18:14:00,
2013-04-21 13:15:00,71.3,49.5,30.18,ENE,78,0.0,6.0,46,0.00,,SCT200,0.00,VWS V13.01,2013-04-21 18:15:00,
2013-04-21 13:19:00,71.5,49.1,30.15,North,360,0.0,3.0,45,0.00,,FEW250,0.00,VWS V13.01,2013-04-21 18:19:00,
2013-04-21 13:24:00,71.8,49.3,30.15,North,360,0.0,5.0,45,0.00,,FEW250,0.00,VWS V13.01,2013-04-21 18:24:00,
2013-04-21 13:29:00,72.0,49.5,30.15,NE,46,0.0,6.0,45,0.00,,FEW250,0.00,VWS V13.01,2013-04-21 18:29:00,
2013-04-21 13:30:00,71.0,49.2,30.18,NE,51,0.0,10.0,46,0.00,,SCT200,0.00,VWS V13.01,2013-04-21 18:30:00,
2013-04-21 13:34:00,71.9,47.0,30.15,North,355,0.0,5.0,41,0.00,,FEW250,0.00,VWS V13.01,2013-04-21 18:34:00,
2013-04-21 13:39:00,71.9,47.6,30.15,NNW,348,0.0,5.0,42,0.00,,FEW250,0.00,VWS V13.01,2013-04-21 18:39:00,
2013-04-21 13:45:00,71.9,48.2,30.15,NE,47,0.0,5.0,43,0.00,,FEW250,0.00,VWS V13.01,2013-04-21 18:45:00,
2013-04-21 13:50:00,72.1,49.6,30.14,NNW,343,0.0,5.0,45,0.00,,FEW250,0.00,VWS V13.01,2013-04-21 18:50:00,
2013-04-21 13:55:00,72.2,49.1,30.15,North,360,0.0,6.0,44,0.00,,FEW250,0.00,VWS V13.01,2013-04-21 18:55:00,
2013-04-21 14:00:00,72.4,49.3,30.14,North,350,0.0,6.0,44,0.00,,CLR,0.00,VWS V13.01,2013-04-21 19:00:00,
2013-04-21 14:15:00,71.4,49.0,30.15,NE,52,0.0,5.0,45,0.00,,SCT200,0.00,VWS V13.01,2013-04-21 19:15:00,
2013-04-21 14:22:00,72.2,47.9,30.13,North,355,0.0,9.0,42,0.00,,CLR,0.00,VWS V13.01,2013-04-21 19:22:00,
2013-04-21 14:27:00,72.4,47.4,30.13,North,9,0.0,9.0,41,0.00,,CLR,0.00,VWS V13.01,2013-04-21 19:27:00,
2013-04-21 14:30:00,72.0,48.9,30.15,North,350,0.0,6.0,44,0.00,,SCT200,0.00,VWS V13.01,2013-04-21 19:30:00,
2013-04-21 14:32:00,72.4,48.0,30.13,NNW,336,7.0,7.0,42,0.00,,CLR,0.00,VWS V13.01,2013-04-21 19:32:00,
2013-04-21 14:44:00,71.5,48.5,30.12,North,5,0.0,8.0,44,0.00,,CLR,0.00,VWS V13.01,2013-04-21 19:44:00,
2013-04-21 14:45:00,71.9,47.6,30.14,NE,48,0.0,5.0,42,0.00,,SCT200,0.00,VWS V13.01,2013-04-21 19:45:00,
2013-04-21 14:49:00,71.7,49.8,30.12,NNE,19,0.0,1.0,46,0.00,,CLR,0.00,VWS V13.01,2013-04-21 19:49:00,
2013-04-21 14:55:00,71.8,48.1,30.12,SE,126,0.0,1.0,43,0.00,,CLR,0.00,VWS V13.01,2013-04-21 19:55:00,
2013-04-21 15:00:00,72.0,48.9,30.11,SSE,153,3.0,4.0,44,0.00,,CLR,0.00,VWS V13.01,2013-04-21 20:00:00,
2013-04-21 15:05:00,72.1,49.0,30.11,ESE,102,0.0,4.0,44,0.00,,CLR,0.00,VWS V13.01,2013-04-21 20:05:00,
2013-04-21 15:10:00,72.1,48.4,30.11,North,355,0.0,4.0,43,0.00,,CLR,0.00,VWS V13.01,2013-04-21 20:10:00,
2013-04-21 15:15:00,72.1,49.0,30.11,NNE,12,0.0,5.0,44,0.00,,CLR,0.00,VWS V13.01,2013-04-21 20:15:00,
2013-04-21 15:20:00,72.0,48.9,30.11,ENE,57,0.0,6.0,44,0.00,,CLR,0.00,VWS V13.01,2013-04-21 20:20:00,
2013-04-21 15:25:00,72.0,48.3,30.11,NNW,331,0.0,7.0,43,0.00,,CLR,0.00,VWS V13.01,2013-04-21 20:25:00,
2013-04-21 15:30:00,71.9,48.2,30.10,NE,39,0.0,7.0,43,0.00,,CLR,0.00,VWS V13.01,2013-04-21 20:30:00,
2013-04-21 15:45:00,72.0,48.9,30.10,NNE,26,1.0,9.0,44,0.00,,CLR,0.00,VWS V13.01,2013-04-21 20:45:00,
2013-04-21 15:50:00,72.1,48.4,30.10,NE,49,0.0,3.0,43,0.00,,CLR,0.00,VWS V13.01,2013-04-21 20:50:00,
2013-04-21 15:55:00,72.3,49.2,30.09,ENE,69,1.0,7.0,44,0.00,,CLR,0.00,VWS V13.01,2013-04-21 20:55:00,
2013-04-21 16:00:00,72.3,48.0,30.09,NNE,27,0.0,7.0,42,0.00,,CLR,0.00,VWS V13.01,2013-04-21 21:00:00,
2013-04-21 16:05:00,72.3,49.2,30.09,ENE,65,0.0,4.0,44,0.00,,CLR,0.00,VWS V13.01,2013-04-21 21:05:00,
2013-04-21 16:10:00,72.3,49.2,30.09,ESE,109,0.0,4.0,44,0.00,,CLR,0.00,VWS V13.01,2013-04-21 21:10:00,
2013-04-21 16:15:00,72.4,49.9,30.09,East,95,0.0,4.0,45,0.00,,CLR,0.00,VWS V13.01,2013-04-21 21:15:00,
2013-04-21 16:20:00,72.7,50.2,30.09,North,5,0.0,5.0,45,0.00,,CLR,0.00,VWS V13.01,2013-04-21 21:20:00,
2013-04-21 16:25:00,72.9,49.1,30.09,ENE,61,0.0,6.0,43,0.00,,CLR,0.00,VWS V13.01,2013-04-21 21:25:00,
2013-04-21 16:30:00,73.0,48.6,30.09,ENE,61,0.0,6.0,42,0.00,,CLR,0.00,VWS V13.01,2013-04-21 21:30:00,
2013-04-21 16:45:00,72.0,48.3,30.10,NNE,29,0.0,9.0,43,0.00,,SCT200,0.00,VWS V13.01,2013-04-21 21:45:00,
2013-04-21 16:46:00,72.9,49.1,30.09,NNE,13,2.0,10.0,43,0.00,,CLR,0.00,VWS V13.01,2013-04-21 21:46:00,
2013-04-21 16:51:00,72.8,49.0,30.09,NE,38,0.0,7.0,43,0.00,,CLR,0.00,VWS V13.01,2013-04-21 21:51:00,
2013-04-21 16:56:00,72.6,48.2,30.08,North,9,0.0,7.0,42,0.00,,CLR,0.00,VWS V13.01,2013-04-21 21:56:00,
2013-04-21 17:00:00,72.3,48.6,30.09,ENE,75,1.0,7.0,43,0.00,,SCT200,0.00,VWS V13.01,2013-04-21 22:00:00,
2013-04-21 17:01:00,72.6,48.8,30.09,North,355,0.0,7.0,43,0.00,,CLR,0.00,VWS V13.01,2013-04-21 22:01:00,
2013-04-21 17:06:00,72.6,48.8,30.09,SSE,152,0.0,9.0,43,0.00,,CLR,0.00,VWS V13.01,2013-04-21 22:06:00,
2013-04-21 17:15:00,72.5,50.0,30.09,NE,49,0.0,4.0,45,0.00,,SCT200,0.00,VWS V13.01,2013-04-21 22:15:00,
2013-04-21 17:18:00,72.6,48.8,30.09,East,81,0.0,5.0,43,0.00,,CLR,0.00,VWS V13.01,2013-04-21 22:18:00,
2013-04-21 17:23:00,72.6,48.8,30.09,NNW,340,3.0,8.0,43,0.00,,CLR,0.00,VWS V13.01,2013-04-21 22:23:00,
2013-04-21 17:29:00,72.4,48.0,30.09,ENE,69,0.0,8.0,42,0.00,,CLR,0.00,VWS V13.01,2013-04-21 22:29:00,
2013-04-21 17:30:00,73.0,49.2,30.09,ENE,61,0.0,6.0,43,0.00,,SCT200,0.00,VWS V13.01,2013-04-21 22:30:00,
2013-04-21 17:34:00,72.3,48.6,30.09,ENE,69,1.0,1.0,43,0.00,,CLR,0.00,VWS V13.01,2013-04-21 22:34:00,
2013-04-21 17:39:00,72.2,49.1,30.09,NE,52,0.0,4.0,44,0.00,,CLR,0.00,VWS V13.01,2013-04-21 22:39:00,
2013-04-21 17:44:00,72.2,48.5,30.09,NE,52,0.0,4.0,43,0.00,,CLR,0.00,VWS V13.01,2013-04-21 22:44:00,
2013-04-21 17:45:00,72.9,48.5,30.09,NNE,13,0.0,10.0,42,0.00,,SCT200,0.00,VWS V13.01,2013-04-21 22:45:00,
2013-04-21 17:49:00,72.1,48.4,30.09,NE,52,0.0,1.0,43,0.00,,CLR,0.00,VWS V13.01,2013-04-21 22:49:00,
2013-04-21 17:54:00,72.0,48.3,30.10,NNE,25,0.0,6.0,43,0.00,,CLR,0.00,VWS V13.01,2013-04-21 22:54:00,
2013-04-21 17:59:00,71.9,48.2,30.09,NNE,25,0.0,6.0,43,0.00,,CLR,0.00,VWS V13.01,2013-04-21 22:59:00,
2013-04-21 18:00:00,72.6,48.8,30.09,North,355,0.0,7.0,43,0.00,,SCT200,0.00,VWS V13.01,2013-04-21 23:00:00,
2013-04-21 18:04:00,71.8,48.1,30.10,NNW,334,1.0,5.0,43,0.00,,CLR,0.00,VWS V13.01,2013-04-21 23:04:00,
2013-04-21 18:10:00,71.7,48.0,30.10,North,5,0.0,5.0,43,0.00,,CLR,0.00,VWS V13.01,2013-04-21 23:10:00,
2013-04-21 18:14:00,71.6,47.3,30.10,NNW,340,0.0,6.0,42,0.00,,CLR,0.00,VWS V13.01,2013-04-21 23:14:00,
2013-04-21 18:15:00,72.7,48.9,30.09,ESE,105,0.0,9.0,43,0.00,,SCT200,0.00,VWS V13.01,2013-04-21 23:15:00,
2013-04-21 18:20:00,71.5,47.8,30.09,ENE,67,0.0,1.0,43,0.00,,CLR,0.00,VWS V13.01,2013-04-21 23:20:00,
2013-04-21 18:25:00,71.4,48.4,30.10,North,360,0.0,7.0,44,0.00,,CLR,0.00,VWS V13.01,2013-04-21 23:25:00,
2013-04-21 18:30:00,71.3,47.7,30.09,North,9,0.0,7.0,43,0.00,,CLR,0.00,VWS V13.01,2013-04-21 23:30:00,
2013-04-21 18:35:00,71.2,48.2,30.09,North,9,0.0,0.0,44,0.00,,CLR,0.00,VWS V13.01,2013-04-21 23:35:00,
2013-04-21 18:40:00,71.0,48.6,30.09,North,9,0.0,1.0,45,0.00,,CLR,0.00,VWS V13.01,2013-04-21 23:40:00,
2013-04-21 18:45:00,70.8,48.4,30.09,North,360,0.0,4.0,45,0.00,,CLR,0.00,VWS V13.01,2013-04-21 23:45:00,
2013-04-21 18:50:00,70.6,48.2,30.09,North,360,0.0,0.0,45,0.00,,CLR,0.00,VWS V13.01,2013-04-21 23:50:00,
2013-04-21 18:55:00,70.4,48.7,30.09,North,360,0.0,0.0,46,0.00,,CLR,0.00,VWS V13.01,2013-04-21 23:55:00,
2013-04-21 19:00:00,70.1,49.0,30.10,North,360,0.0,0.0,47,0.00,,CLR,0.00,VWS V13.01,2013-04-22 00:00:00,
2013-04-21 19:15:00,71.6,47.9,30.10,ENE,67,0.0,6.0,43,0.00,,SCT200,0.00,VWS V13.01,2013-04-22 00:15:00,
2013-04-21 19:18:00,68.2,52.9,30.10,SSW,200,0.0,0.0,58,0.00,,CLR,0.00,VWS V13.01,2013-04-22 00:18:00,
2013-04-21 19:23:00,67.3,53.8,30.10,SSW,207,0.0,1.0,62,0.00,,CLR,0.00,VWS V13.01,2013-04-22 00:23:00,
2013-04-21 19:30:00,71.3,48.3,30.10,North,9,0.0,7.0,44,0.00,,SCT200,0.00,VWS V13.01,2013-04-22 00:30:00,
2013-04-21 19:32:00,66.3,54.2,30.10,NE,55,0.0,0.0,65,0.00,,CLR,0.00,VWS V13.01,2013-04-22 00:32:00,
2013-04-21 19:37:00,65.7,54.5,30.10,NE,55,0.0,0.0,67,0.00,,CLR,0.00,VWS V13.01,2013-04-22 00:37:00,
2013-04-21 19:42:00,65.4,54.2,30.10,NE,55,0.0,0.0,67,0.00,,CLR,0.00,VWS V13.01,2013-04-22 00:42:00,
2013-04-21 19:45:00,70.8,48.4,30.09,North,360,0.0,4.0,45,0.00,,SCT200,0.00,VWS V13.01,2013-04-22 00:45:00,
2013-04-21 19:47:00,64.9,54.1,30.11,NE,55,0.0,0.0,68,0.00,,CLR,0.00,VWS V13.01,2013-04-22 00:47:00,
2013-04-21 19:52:00,64.4,54.4,30.11,NE,55,0.0,0.0,70,0.00,,CLR,0.00,VWS V13.01,2013-04-22 00:52:00,
2013-04-21 19:57:00,64.0,54.4,30.11,NE,55,0.0,0.0,71,0.00,,CLR,0.00,VWS V13.01,2013-04-22 00:57:00,
2013-04-21 20:00:00,70.1,49.0,30.10,North,360,0.0,0.0,47,0.00,,SCT200,0.00,VWS V13.01,2013-04-22 01:00:00,
2013-04-21 20:13:00,62.7,54.3,30.12,NE,55,0.0,0.0,74,0.00,,CLR,0.00,VWS V13.01,2013-04-22 01:13:00,
2013-04-21 20:15:00,68.5,53.2,30.10,SSW,200,0.0,6.0,58,0.00,,SCT200,0.00,VWS V13.01,2013-04-22 01:15:00,
2013-04-21 20:18:00,62.2,54.2,30.12,NE,55,0.0,0.0,75,0.00,,CLR,0.00,VWS V13.01,2013-04-22 01:18:00,
2013-04-21 20:23:00,61.8,54.2,30.12,NE,55,0.0,0.0,76,0.00,,CLR,0.00,VWS V13.01,2013-04-22 01:23:00,
2013-04-21 20:29:00,61.4,54.1,30.11,NE,55,0.0,0.0,77,0.00,,CLR,0.00,VWS V13.01,2013-04-22 01:29:00,
2013-04-21 20:30:00,66.3,54.2,30.10,NE,55,0.0,1.0,65,0.00,,SCT200,0.00,VWS V13.01,2013-04-22 01:30:00,
2013-04-21 20:34:00,61.1,53.8,30.11,NE,55,0.0,0.0,77,0.00,,CLR,0.00,VWS V13.01,2013-04-22 01:34:00,
2013-04-21 20:39:00,60.8,53.9,30.11,NE,55,0.0,0.0,78,0.00,,CLR,0.00,VWS V13.01,2013-04-22 01:39:00,
2013-04-21 20:44:00,60.5,54.0,30.12,NE,55,0.0,0.0,79,0.00,,CLR,0.00,VWS V13.01,2013-04-22 01:44:00,
2013-04-21 20:45:00,65.0,54.2,30.11,NE,55,0.0,0.0,68,0.00,,SCT200,0.00,VWS V13.01,2013-04-22 01:45:00,
2013-04-21 20:49:00,60.2,54.0,30.11,NE,55,0.0,0.0,80,0.00,,CLR,0.00,VWS V13.01,2013-04-22 01:49:00,
2013-04-21 20:54:00,59.9,53.7,30.11,NE,55,0.0,0.0,80,0.00,,CLR,0.00,VWS V13.01,2013-04-22 01:54:00,
2013-04-21 20:59:00,59.6,53.8,30.12,NE,55,0.0,0.0,81,0.00,,CLR,0.00,VWS V13.01,2013-04-22 01:59:00,
2013-04-21 21:00:00,63.7,54.1,30.11,NE,55,0.0,0.0,71,0.00,,SCT200,0.00,VWS V13.01,2013-04-22 02:00:00,
2013-04-21 21:04:00,59.3,53.8,30.12,NE,55,0.0,0.0,82,0.00,,CLR,0.00,VWS V13.01,2013-04-22 02:04:00,
2013-04-21 21:15:00,62.4,54.4,30.12,NE,55,0.0,0.0,75,0.00,,SCT200,0.00,VWS V13.01,2013-04-22 02:15:00,
2013-04-21 21:21:00,58.6,53.5,30.12,NE,55,0.0,0.0,83,0.00,,CLR,0.00,VWS V13.01,2013-04-22 02:21:00,
2013-04-21 21:26:00,58.3,53.5,30.12,NE,55,0.0,0.0,84,0.00,,CLR,0.00,VWS V13.01,2013-04-22 02:26:00,
2013-04-21 21:30:00,61.3,54.0,30.11,NE,55,0.0,0.0,77,0.00,,SCT200,0.00,VWS V13.01,2013-04-22 02:30:00,
2013-04-21 21:31:00,58.1,53.3,30.12,NE,55,0.0,0.0,84,0.00,,CLR,0.00,VWS V13.01,2013-04-22 02:31:00,
2013-04-21 21:36:00,57.9,53.4,30.12,NE,55,0.0,0.0,85,0.00,,CLR,0.00,VWS V13.01,2013-04-22 02:36:00,
2013-04-21 21:45:00,60.4,53.9,30.12,NE,55,0.0,0.0,79,0.00,,SCT200,0.00,VWS V13.01,2013-04-22 02:45:00,
2013-04-21 21:46:00,57.5,53.0,30.12,NE,55,0.0,0.0,85,0.00,,CLR,0.00,VWS V13.01,2013-04-22 02:46:00,
2013-04-21 21:51:00,57.3,53.2,30.13,NE,55,0.0,0.0,86,0.00,,CLR,0.00,VWS V13.01,2013-04-22 02:51:00,
2013-04-21 21:56:00,57.1,53.0,30.13,NE,55,0.0,0.0,86,0.00,,CLR,0.00,VWS V13.01,2013-04-22 02:56:00,
2013-04-21 22:00:00,59.4,53.6,30.12,NE,55,0.0,0.0,81,0.00,,SCT200,0.00,VWS V13.01,2013-04-22 03:00:00,
2013-04-21 22:01:00,56.9,53.1,30.13,NE,55,0.0,0.0,87,0.00,,CLR,0.00,VWS V13.01,2013-04-22 03:01:00,
2013-04-21 22:06:00,56.8,53.0,30.12,NE,55,0.0,0.0,87,0.00,,CLR,0.00,VWS V13.01,2013-04-22 03:06:00,
2013-04-21 22:11:00,56.6,52.8,30.12,NE,55,0.0,0.0,87,0.00,,CLR,0.00,VWS V13.01,2013-04-22 03:11:00,
2013-04-21 22:15:00,58.8,53.7,30.12,NE,55,0.0,0.0,83,0.00,,SCT200,0.00,VWS V13.01,2013-04-22 03:15:00,
2013-04-21 22:17:00,56.5,52.7,30.13,NE,55,0.0,0.0,87,0.00,,CLR,0.00,VWS V13.01,2013-04-22 03:17:00,
2013-04-21 22:22:00,56.4,52.9,30.12,NE,55,0.0,0.0,88,0.00,,CLR,0.00,VWS V13.01,2013-04-22 03:22:00,
2013-04-21 22:27:00,56.2,52.7,30.12,NE,55,0.0,0.0,88,0.00,,CLR,0.00,VWS V13.01,2013-04-22 03:27:00,
2013-04-21 22:30:00,58.1,53.3,30.12,NE,55,0.0,0.0,84,0.00,,SCT200,0.00,VWS V13.01,2013-04-22 03:30:00,
2013-04-21 22:32:00,56.1,52.6,30.12,NE,55,0.0,0.0,88,0.00,,CLR,0.00,VWS V13.01,2013-04-22 03:32:00,
2013-04-21 22:37:00,56.0,52.5,30.12,NE,55,0.0,0.0,88,0.00,,CLR,0.00,VWS V13.01,2013-04-22 03:37:00,
2013-04-21 22:42:00,55.9,52.4,30.12,NE,55,0.0,0.0,88,0.00,,CLR,0.00,VWS V13.01,2013-04-22 03:42:00,
2013-04-21 22:45:00,57.4,52.9,30.12,NE,55,0.0,0.0,85,0.00,,SCT200,0.00,VWS V13.01,2013-04-22 03:45:00,
2013-04-21 22:47:00,55.8,52.6,30.12,NE,55,0.0,0.0,89,0.00,,CLR,0.00,VWS V13.01,2013-04-22 03:47:00,
2013-04-21 22:52:00,55.6,52.4,30.12,NE,55,0.0,0.0,89,0.00,,CLR,0.00,VWS V13.01,2013-04-22 03:52:00,
2013-04-21 22:57:00,55.5,52.3,30.12,NE,55,0.0,0.0,89,0.00,,CLR,0.00,VWS V13.01,2013-04-22 03:57:00,
2013-04-21 23:00:00,56.9,53.1,30.13,NE,55,0.0,0.0,87,0.00,,SCT200,0.00,VWS V13.01,2013-04-22 04:00:00,
2013-04-21 23:01:00,55.4,52.2,30.12,NE,55,0.0,0.0,89,0.00,,CLR,0.00,VWS V13.01,2013-04-22 04:01:00,
2013-04-21 23:11:00,55.1,51.9,30.12,NE,55,0.0,0.0,89,0.00,,CLR,0.00,VWS V13.01,2013-04-22 04:11:00,
2013-04-21 23:15:00,56.5,52.7,30.13,NE,55,0.0,0.0,87,0.00,,SCT200,0.00,VWS V13.01,2013-04-22 04:15:00,
2013-04-21 23:16:00,55.0,51.8,30.12,NE,55,0.0,0.0,89,0.00,,CLR,0.00,VWS V13.01,2013-04-22 04:16:00,
2013-04-21 23:21:00,54.9,52.0,30.12,NE,55,0.0,0.0,90,0.00,,CLR,0.00,VWS V13.01,2013-04-22 04:21:00,
2013-04-21 23:26:00,54.8,51.9,30.12,NE,55,0.0,0.0,90,0.00,,CLR,0.00,VWS V13.01,2013-04-22 04:26:00,
2013-04-21 23:30:00,56.1,52.6,30.12,NE,55,0.0,0.0,88,0.00,,SCT200,0.00,VWS V13.01,2013-04-22 04:30:00,
2013-04-21 23:31:00,54.7,51.8,30.12,NE,55,0.0,0.0,90,0.00,,CLR,0.00,VWS V13.01,2013-04-22 04:31:00,
2013-04-21 23:36:00,54.6,51.7,30.11,NE,55,0.0,0.0,90,0.00,,CLR,0.00,VWS V13.01,2013-04-22 04:36:00,
2013-04-21 23:41:00,54.5,51.6,30.11,NE,55,0.0,0.0,90,0.00,,CLR,0.00,VWS V13.01,2013-04-22 04:41:00,
2013-04-21 23:45:00,55.8,52.3,30.12,NE,55,0.0,0.0,88,0.00,,SCT200,0.00,VWS V13.01,2013-04-22 04:45:00,
2013-04-21 23:47:00,54.4,51.5,30.12,NE,55,0.0,0.0,90,0.00,,CLR,0.00,VWS V13.01,2013-04-22 04:47:00,
2013-04-21 23:52:00,54.3,51.4,30.12,NE,55,0.0,0.0,90,0.00,,CLR,0.00,VWS V13.01,2013-04-22 04:52:00,
2013-04-21 23:57:00,54.3,51.4,30.12,NE,55,0.0,0.0,90,0.00,,CLR,0.00,VWS V13.01,2013-04-22 04:57:00,